Location: Sinnemahoning State Park
(41.4031°N, 78.0230°W)
Time: 02:01:56
(UTC-04:00)

Daily predictions for brighter satellites

Satellite Brightness Start Highest point End
(mag) Time Altitude Azimuth Time Altitude Azimuth Time Altitude Azimuth
Cosmos 676 Rocket 4.2 00:07:57 60° WSW 00:08:43 69° WNW 00:14:04 10° NNE
Atlas Centaur 2 4.1 00:01:17 10° WSW 00:05:19 27° SW 00:05:19 27° SW
Cosmos 1943 Rocket 2.0 00:14:00 10° NNW 00:19:34 89° ENE 00:19:48 83° SE
Nadezhda 4 Rocket 4.0 00:18:32 59° SSW 00:19:45 77° W 00:26:08 10° N
Cosmos 1953 3.5 00:17:38 10° NNW 00:20:33 38° NW 00:20:33 38° NW
Lacrosse 4 Rocket 2.3 00:22:27 43° NW 00:22:27 43° NW 00:26:01 10° NNE
Cosmos 1023 Rocket 4.4 00:25:48 82° ENE 00:25:48 82° ENE 00:30:55 10° NNE
Cosmos 1842 Rocket 4.1 00:22:04 10° NNW 00:25:39 57° NW 00:25:39 57° NW
Cosmos 1470 4.0 00:25:53 10° N 00:28:29 39° NNE 00:28:29 39° NNE
Cosmos 1140 Rocket 3.4 00:30:00 85° N 00:30:00 85° N 00:35:08 10° NNE
Cosmos 2369 Rocket 3.7 00:38:36 10° NW 00:42:53 22° W 00:42:56 22° WSW
Cosmos 1656 Rocket 3.7 00:37:17 10° NNW 00:42:58 68° ENE 00:43:21 66° E
Cosmos 2208 Rocket 4.0 00:39:00 10° NNW 00:43:49 74° WNW 00:43:49 74° WNW
CZ-2C R/B 3.7 00:44:24 10° NNE 00:49:08 33° E 00:49:08 33° E
Meteor 1-16 Rocket 4.2 00:45:58 10° N 00:51:31 69° E 00:51:41 69° E
CZ-4B R/B 3.4 00:57:18 29° NNW 00:57:18 29° NNW 00:59:15 10° NNW
COSMOS 2406 3.3 00:55:40 65° W 00:56:11 69° WNW 01:01:55 10° NNE
NOSS 3-2 (A) 4.1 00:57:43 40° ESE 00:57:43 40° ESE 01:03:13 10° NE
Cosmos 1627 Rocket 4.3 00:56:54 76° SSW 00:57:24 85° W 01:03:34 10° N
ATLAS 3B R/B 3.9 00:52:48 12° WSW 00:59:31 43° NW 01:06:35 10° NNE
Cosmos 2195 Rocket 4.3 00:59:36 72° SW 01:00:11 80° W 01:06:27 10° N
Cosmos 2026 Rocket 3.7 00:59:46 78° S 01:00:12 90° ESE 01:06:19 10° N
Cosmos 1766 Rocket 4.5 01:02:19 44° NE 01:02:19 44° NE 01:05:42 10° NNE
Cosmos 2228 Rocket 4.2 01:02:49 10° N 01:06:20 38° NE 01:06:20 38° NE
Cosmos 614 Rocket 4.1 01:08:19 65° WNW 01:08:19 65° WNW 01:13:24 10° NNE
Cosmos 1340 4.5 01:15:04 28° NW 01:15:04 28° NW 01:17:22 10° N
SL-8 R/B 4.5 01:13:54 10° WNW 01:18:38 51° NNE 01:20:11 36° ENE
Cosmos 1707 4.4 01:20:15 31° NW 01:20:15 31° NW 01:22:47 10° N
USA 238 DEB 4.2 01:23:30 37° WSW 01:26:16 58° NW 01:33:14 10° NNE
USA 238 4.1 01:23:38 37° WSW 01:26:21 59° NW 01:33:20 10° NNE
Meteor 1-24 Rocket 3.8 01:27:04 71° WSW 01:27:32 75° W 01:33:32 10° N
Cosmos 2082 Rocket 3.6 01:29:53 26° E 01:29:53 26° E 01:34:19 10° NE
Helios 1A Rocket 4.2 01:26:06 10° N 01:29:04 36° NW 01:29:04 36° NW
Cosmos 2221 3.8 01:26:02 10° NNW 01:28:56 34° NW 01:28:56 34° NW
USA 215 3.8 01:24:07 10° ENE 01:29:53 40° ESE 01:29:53 40° ESE
Cosmos 1607 4.2 01:33:14 49° WSW 01:34:38 60° NW 01:40:48 10° NNE
Cosmos 1076 Rocket 4.5 01:36:06 43° NNW 01:36:06 43° NNW 01:39:18 10° N
Cosmos 1553 Rocket 4.0 01:34:34 10° NNW 01:40:50 69° W 01:41:27 65° SW
Cosmos 1833 Rocket 3.9 01:47:33 28° ESE 01:47:45 28° ESE 01:52:27 10° NE
ISS -0.5 01:47:29 16° NNW 01:48:00 17° NNW 01:50:14 10° NNE
Cosmos 841 Rocket 4.3 01:43:25 10° N 01:48:28 45° ENE 01:49:35 39° E
CZ-4C R/B 2.0 01:48:51 83° SE 01:48:54 84° ESE 01:54:53 10° NE
Meteor 1-21 Rocket 4.3 01:48:32 64° ESE 01:48:58 67° E 01:54:39 10° NNE
NOSS 3-3 (A) 4.4 01:45:02 10° NW 01:52:31 86° NE 01:55:46 40° SE
NOSS 3-3 (C) 4.4 01:45:09 10° NW 01:52:38 85° NE 01:55:56 39° SE
Cosmos 1066 4.5 01:58:17 82° S 01:58:31 88° ESE 02:04:01 10° N
Timation 2 Rocket 4.1 01:57:26 62° S 01:58:41 81° ESE 02:05:33 10° NNE
Cosmos 2344 3.7 01:58:28 51° S 02:00:24 65° ESE 02:08:54 10° NE
NOSS 3-2 (C) 3.3 01:59:33 67° SW 02:00:30 89° NW 02:07:12 10° NE
Cosmos 1943 Rocket 4.4 02:00:41 10° WNW 02:01:18 11° W 02:01:18 11° W
Cosmos 1818 3.6 01:59:31 10° NNW 02:05:01 76° ENE 02:05:51 63° ESE
Cosmos 468 Rocket 4.4 02:01:14 10° NNW 02:05:45 50° W 02:05:45 50° W
Cosmos 1674 3.9 02:08:51 38° NE 02:08:51 38° NE 02:11:29 10° NNE
Cosmos 1814 Rocket 4.2 02:03:01 10° NNW 02:07:45 56° W 02:07:45 56° W
CENTAUR R/B 3.7 02:10:43 26° SE 02:11:40 27° ESE 02:17:03 10° NE
Cosmos 2266 Rocket 4.0 02:11:04 59° SW 02:12:09 71° W 02:18:35 10° N
H-2A R/B 4.0 02:14:43 21° SE 02:14:43 21° SE 02:20:30 10° E
Cosmos 1486 Rocket 4.2 02:16:00 56° W 02:16:18 57° WNW 02:21:26 10° NNE
Meteor 2-20 Rocket 4.4 02:17:53 62° SW 02:18:53 75° W 02:25:05 10° N
Lacrosse 5 4.0 02:15:29 10° NNW 02:19:44 26° NNE 02:23:57 10° E
Cosmos 1726 4.3 02:21:43 10° NNE 02:24:24 19° ENE 02:25:11 18° E
PSLV R/B 3.8 02:20:32 10° NNE 02:25:11 65° ESE 02:25:11 65° ESE
Cosmos 2369 3.6 02:20:13 10° NNW 02:25:49 65° WSW 02:26:01 64° WSW
IRAS Rocket 4.5 02:21:12 10° NNE 02:26:37 57° ESE 02:27:34 50° SE
Cosmos 1656 3.9 02:21:09 10° NNW 02:26:51 67° ENE 02:28:57 39° SE
CZ-2C R/B 3.6 02:29:35 46° W 02:29:35 46° W 02:34:56 10° NNW
CZ-2C R/B 3.7 02:24:41 10° N 02:29:38 33° WNW 02:30:39 31° W
Cosmos 1867 3.5 02:37:24 62° WSW 02:38:15 76° WNW 02:43:46 10° NNE
Genesis I 4.0 02:36:09 10° NNW 02:40:02 50° NE 02:40:38 45° E
IRS-P3 4.4 02:34:45 10° NNE 02:40:02 59° E 02:41:12 48° SSE
Cosmos 1151 Rocket 3.5 02:35:57 10° NNW 02:39:29 49° WNW 02:39:29 49° WNW
Cosmos 1908 4.3 02:37:52 10° NNW 02:40:29 37° NW 02:40:29 37° NW
Cosmos 1437 Rocket 3.2 02:38:03 10° NNW 02:41:17 57° NNW 02:41:17 57° NNW
Aureole 1 Rocket 3.6 02:42:39 10° NNW 02:46:59 68° ENE 02:49:08 36° SE
NOSS 3-2 (A) 4.5 02:45:04 26° W 02:48:02 40° NW 02:54:21 10° NNE
Cosmos 2278 4.5 02:44:52 10° NW 02:49:30 34° W 02:49:30 34° W
ASTEX 1 3.7 02:46:00 10° N 02:50:50 51° W 02:51:17 50° W
Resurs 1-4 Rocket 4.5 02:48:57 10° NE 02:52:02 15° E 02:55:05 10° SE
JB-3 4.3 02:48:36 10° N 02:52:31 80° NW 02:52:31 80° NW
Sich 1 3.5 02:53:35 48° SE 02:54:16 54° E 02:58:35 10° NNE
Cosmos 1763 Rocket 4.0 02:49:29 10° NNW 02:54:19 42° W 02:54:19 42° W
USA 32 4.1 02:52:04 10° NNW 02:57:13 57° W 02:57:56 53° WSW
Cosmos 2151 3.4 02:58:18 48° WNW 02:58:18 48° WNW 03:02:22 10° N
Cosmos 1980 Rocket 2.7 02:53:28 10° NNW 02:59:01 58° ENE 03:04:06 12° SE
Cosmos 1441 Rocket 4.4 03:03:59 32° WNW 03:03:59 32° WNW 03:07:20 10° N
SL-08 R/B 4.3 03:02:44 43° S 03:04:53 88° W 03:11:01 10° N
Cosmos 1300 2.5 03:03:56 10° N 03:07:47 87° W 03:07:48 87° WSW
BREEZE-M DEB (TANK) 3.0 03:08:59 38° SE 03:08:59 38° SE 03:14:10 10° ENE
Cosmos 540 Rocket 3.4 03:05:13 10° NNW 03:10:25 89° ENE 03:12:41 35° SSE
Cosmos 724 4.4 03:09:50 41° WSW 03:11:47 63° NW 03:17:38 10° NNE
Cosmos 2058 3.0 03:12:15 56° W 03:12:29 57° W 03:16:37 10° N
USA 215 3.6 03:06:57 10° NE 03:13:22 61° NW 03:17:12 26° WSW
Cosmos 2082 Rocket 2.8 03:11:43 34° WSW 03:13:31 45° WNW 03:18:57 10° NNE
Cosmos 2242 Rocket 3.6 03:09:26 10° N 03:13:52 75° E 03:15:13 43° SSE
ERS-2 2.5 03:12:41 10° N 03:16:18 50° WNW 03:16:18 50° WNW
AQUA 3.7 03:16:29 10° N 03:21:15 82° WNW 03:22:38 47° SSW
Cosmos 1697 Rocket 2.7 03:15:52 10° NNW 03:21:26 58° WSW 03:23:25 38° SSW
Meteor 1-27 4.2 03:15:40 10° NNW 03:21:29 70° W 03:23:58 35° S
NPP 3.7 03:18:14 10° N 03:23:35 68° WNW 03:25:31 40° SW
CZ-2D R/B 3.6 03:20:33 10° NE 03:25:07 29° E 03:29:14 12° SSE
ISS -0.2 03:23:30 10° NNW 03:25:25 14° N 03:27:20 10° NE
SL-16 R/B 3.5 03:20:44 10° SE 03:26:39 47° ENE 03:32:38 10° N
Abrixas 2.7 03:29:48 66° NNW 03:29:48 66° NNW 03:32:50 10° ENE
Cosmos 2360 4.4 03:25:06 10° NNW 03:30:49 73° ENE 03:36:31 10° SSE
SL-14 R/B 3.3 03:30:30 53° WSW 03:30:54 57° W 03:34:42 10° N
Cosmos 1833 Rocket 3.4 03:29:15 29° WSW 03:31:26 42° WNW 03:36:47 10° N
Spot 4 Rocket 4.1 03:28:46 10° NNE 03:33:56 75° ESE 03:36:31 30° S
Cosmos 1805 Rocket 4.5 03:34:08 31° W 03:34:48 33° WNW 03:38:49 10° N
Cosmos 1455 3.3 03:31:59 10° N 03:35:38 42° ENE 03:38:21 16° SE
CZ-4C R/B 4.2 03:34:00 10° W 03:38:17 22° NNW 03:42:57 10° NNE
Cosmos 968 Rocket 3.4 03:38:14 33° S 03:40:36 79° ESE 03:45:45 10° NNE
Cosmos 1538 Rocket 4.0 03:36:47 10° NNW 03:42:01 85° ENE 03:47:17 10° SSE
CZ-3 Stage 3 3.9 03:30:56 10° WSW 03:44:24 33° SSW 03:48:13 10° SE
Cosmos 1703 3.2 03:43:37 44° SSW 03:44:45 70° W 03:48:43 10° N
Cosmos 1437 4.0 03:45:21 28° WNW 03:45:21 28° WNW 03:48:17 10° NNW
Cosmos 1633 Rocket 3.7 03:44:54 34° WSW 03:46:02 41° WNW 03:50:15 10° N
Atlas Centaur 2 4.4 03:50:23 13° S 03:50:23 13° S 03:51:26 10° SSE
SL-08 R/B 4.0 03:46:26 32° SW 03:47:29 36° W 03:52:00 10° NNW
Lacrosse 5 rocket 3.6 03:44:17 10° NNW 03:48:09 29° NNE 03:52:07 10° E
ATLAS 5 CENTAUR R/B 4.0 03:45:29 10° SSE 03:48:45 18° ESE 03:52:09 10° ENE
ADEOS 3.6 03:44:55 10° N 03:50:05 64° WNW 03:52:44 29° SW
SL-16 R/B 2.7 03:49:24 10° NNW 03:55:03 62° ENE 04:00:39 10° SE
EO 1 Del DPAF 3.2 03:52:36 20° SSE 03:55:12 89° E 03:59:08 10° NNW
Cosmos 332 Rocket 4.0 03:51:54 10° NNW 03:56:29 47° WSW 03:58:49 26° SSW
Cosmos 1726 3.3 03:56:43 10° NW 03:59:45 25° W 03:59:50 25° W
Cosmos 1470 Rocket 3.7 03:59:11 30° SSW 04:01:14 58° W 04:05:38 10° N
Meteor 1-4 Rocket 2.5 03:57:49 10° NNW 04:01:34 75° W 04:03:48 23° S
CENTAUR R/B 2.9 03:57:54 23° WSW 04:01:46 56° NW 04:08:36 10° NNE
Lacrosse 5 1.7 03:58:05 10° NW 04:03:09 76° SW 04:08:10 10° SE
Cosmos 1777 Rocket 4.1 03:59:39 22° S 04:03:09 78° ESE 04:08:28 10° NNE
Nadezhda 1 Rocket 4.5 03:58:25 10° NNW 04:04:07 40° W 04:07:29 22° SW
Meteor 2-10 4.1 03:59:22 10° NNW 04:04:29 62° W 04:08:39 16° S
USA 161 3.0 04:05:41 19° WNW 04:05:41 19° WNW 04:06:46 10° NW
IRS-1D 3.6 04:00:34 10° NNE 04:05:57 90° E 04:09:56 18° SSW
Cosmos 1933 Rocket 3.8 04:04:16 28° SW 04:06:18 52° W 04:10:37 10° N
Cosmos 1709 Rocket 4.0 04:02:08 19° SSW 04:06:50 76° W 04:13:09 10° N
Cosmos 1271 Rocket 2.7 04:05:07 10° NNW 04:08:52 59° W 04:11:03 23° S
UNK 3.7 04:04:19 10° SSE 04:08:54 88° ENE 04:13:30 10° NNW
Cosmos 2322 Rocket 2.2 04:04:46 10° NNW 04:10:26 88° ENE 04:16:03 10° SSE
ARIANE 5 R/B 2.5 04:07:06 10° N 04:12:13 71° WNW 04:15:47 20° SSW
BREEZE-M DEB (TANK) 3.8 04:10:13 10° NW 04:13:41 28° N 04:15:46 10° ENE
Cosmos 773 Rocket 3.9 04:11:02 10° NNW 04:16:11 85° WSW 04:21:19 10° SSE
Cosmos 1626 2.3 04:15:55 25° SSW 04:17:53 56° W 04:21:35 10° N
BREEZE-M TANK 2.9 04:13:53 10° W 04:18:04 43° N 04:20:26 10° ENE
CZ-2D R/B 4.3 04:14:50 10° NNE 04:18:57 49° E 04:22:55 10° S
Okean O Rocket 2.7 04:14:54 10° NNE 04:19:08 42° E 04:23:19 10° S
Cosmos 2292 Rocket 2.8 04:23:56 25° SSW 04:25:23 53° W 04:28:32 10° N
Resurs 1-4 Rocket 2.2 04:27:03 10° N 04:32:20 67° WNW 04:37:09 12° SSW
Cosmos 2221 Rocket 3.6 04:35:05 10° N 04:39:35 78° W 04:44:05 10° S
MTI 4.5 04:38:19 13° SSW 04:41:04 37° W 04:44:13 10° NNW
Okean 1-7 3.4 04:37:07 10° N 04:41:31 70° E 04:45:52 10° SSE
Cosmos 1980 Rocket 3.5 04:38:36 10° NW 04:42:31 20° W 04:45:46 12° SW
OAO 3 Rocket 3.9 04:40:13 15° SW 04:43:34 35° S 04:47:53 10° ESE
Cosmos 2360 Rocket 2.8 04:38:15 10° NNW 04:43:50 60° ENE 04:49:23 10° SE
CZ-4B R/B 3.6 04:38:57 10° NNE 04:44:21 64° ESE 04:49:48 10° S
Cosmos 2322 4.2 04:43:29 10° NNW 04:49:12 66° ENE 04:54:53 10° SSE
Cosmos 2219 4.4 04:44:14 10° S 04:49:33 41° ESE 04:54:53 10° NE
Cosmos 2112 Rocket 3.9 04:44:34 10° NNW 04:49:47 80° WSW 04:54:58 10° SSE
MOZ.5/SAFIR/RUBIN 5/SL-8 4.0 04:50:51 10° SSE 04:55:29 75° ENE 05:00:12 10° N
CZ-4B R/B 3.4 04:51:56 10° NNE 04:55:50 61° ESE 04:59:53 10° S
Cosmos 1346 3.9 04:54:13 12° SW 04:56:47 35° WNW 04:59:38 10° N
PAYLOAD B 4.3 04:51:55 10° NNE 04:57:27 85° ESE 05:02:58 10° SSW
CZ-4B DEB 4.4 04:53:52 10° NNE 04:59:21 77° ESE 05:04:52 10° S
ISS -1.4 04:59:33 10° NW 05:02:36 34° NNE 05:05:37 10° E
SL-08 ROCKET BODY 4.4 04:58:57 10° SSW 05:04:55 74° W 05:11:02 10° N
CZ-2D R/B 2.9 05:00:30 10° N 05:05:11 34° WNW 05:09:54 10° SW
UNKNOWN OBJECT B 3.7 05:02:10 10° N 05:05:31 30° WNW 05:08:52 10° SW
Cosmos 1869 Rocket 3.9 05:01:55 10° SSW 05:06:07 47° WNW 05:10:23 10° N
SL-16 R/B 3.4 05:05:12 10° SSW 05:10:27 28° W 05:15:46 10° NW
Cosmos 1455 4.3 05:09:32 10° WNW 05:10:56 12° W 05:12:20 10° WSW
Cosmos 2298 Rocket 4.2 05:06:55 10° SSW 05:12:15 83° ESE 05:17:37 10° NNE
Cosmos 2154 Rocket 4.3 05:06:45 10° S 05:13:02 78° E 05:19:24 10° N
Nadezhda 3 Rocket 4.3 05:06:53 10° N 05:13:04 76° E 05:19:12 10° SSE
Cosmos 304 Rocket 4.1 05:09:10 10° NNW 05:13:47 46° WSW 05:18:22 10° S
IRS-1C Rocket 4.5 05:08:43 10° N 05:13:48 49° WNW 05:18:51 10° SW
Cosmos 1933 4.4 05:11:36 10° NNW 05:14:59 27° W 05:18:23 10° SSW
COSMOS 2428 3.7 05:09:56 10° NNW 05:15:31 54° ENE 05:21:03 10° SE
Cosmos 1833 4.4 05:11:58 10° SSW 05:17:42 67° WNW 05:23:27 10° NNE
